TimeEST,TemperatureF,Dew PointF,Humidity,Sea Level PressureIn,VisibilityMPH,Wind Direction,Wind SpeedMPH,Gust SpeedMPH,PrecipitationIn,Events,Conditions,WindDirDegrees,DateUTC
12:53 AM,70.0,66.0,87,30.01,10.0,West,3.5,-,N/A,,Partly Cloudy,280,2012-11-05 05:53:00
1:53 AM,69.1,64.9,87,30.00,10.0,Calm,Calm,-,N/A,,Partly Cloudy,0,2012-11-05 06:53:00
2:53 AM,66.9,64.0,90,29.98,7.0,Calm,Calm,-,N/A,,Clear,0,2012-11-05 07:53:00
3:53 AM,66.0,64.0,93,29.99,9.0,WNW,6.9,-,N/A,,Clear,290,2012-11-05 08:53:00
4:53 AM,66.0,63.0,90,29.98,10.0,Calm,Calm,-,N/A,,Scattered Clouds,0,2012-11-05 09:53:00
5:53 AM,66.9,64.0,90,29.99,9.0,Calm,Calm,-,N/A,,Clear,0,2012-11-05 10:53:00
6:53 AM,69.1,66.0,90,30.00,10.0,Calm,Calm,-,N/A,,Clear,0,2012-11-05 11:53:00
7:53 AM,69.1,66.0,90,30.00,9.0,Calm,Calm,-,N/A,,Clear,0,2012-11-05 12:53:00
8:53 AM,73.0,66.9,81,30.00,10.0,North,3.5,-,N/A,,Clear,350,2012-11-05 13:53:00
9:53 AM,75.0,66.0,73,30.01,10.0,NW,5.8,-,N/A,,Clear,320,2012-11-05 14:53:00
10:53 AM,75.9,64.9,69,30.01,10.0,WNW,6.9,-,N/A,,Clear,300,2012-11-05 15:53:00
11:53 AM,77.0,64.0,64,29.99,10.0,North,6.9,-,N/A,,Clear,350,2012-11-05 16:53:00
12:53 PM,77.0,63.0,62,29.96,10.0,WNW,6.9,-,N/A,,Clear,300,2012-11-05 17:53:00
1:53 PM,75.9,62.1,62,29.94,10.0,West,8.1,-,N/A,,Overcast,270,2012-11-05 18:53:00
2:53 PM,75.0,64.0,69,29.94,10.0,West,8.1,-,N/A,,Clear,280,2012-11-05 19:53:00
3:53 PM,75.0,62.1,64,29.94,10.0,West,8.1,-,N/A,,Clear,280,2012-11-05 20:53:00
4:53 PM,73.9,57.9,57,29.94,10.0,WNW,5.8,-,N/A,,Clear,300,2012-11-05 21:53:00
5:53 PM,71.1,57.9,63,29.95,10.0,WNW,4.6,-,N/A,,Clear,300,2012-11-05 22:53:00
6:53 PM,69.1,57.9,68,29.96,10.0,NW,3.5,-,N/A,,Clear,320,2012-11-05 23:53:00
7:53 PM,69.1,60.1,73,29.96,10.0,Calm,Calm,-,N/A,,Scattered Clouds,0,2012-11-06 00:53:00
8:53 PM,68.0,61.0,78,29.97,10.0,Calm,Calm,-,N/A,,Clear,0,2012-11-06 01:53:00
9:53 PM,66.9,62.1,84,29.98,10.0,Calm,Calm,-,N/A,,Clear,0,2012-11-06 02:53:00
10:53 PM,66.9,62.1,84,29.96,10.0,Calm,Calm,-,N/A,,Overcast,0,2012-11-06 03:53:00
11:53 PM,64.9,62.1,90,29.93,10.0,North,3.5,-,N/A,,Clear,360,2012-11-06 04:53:00